DW7889 Weather Reports


Display with metric or nautical units.
time (UTC)temp
F
wind
direction
speed
MPH
gust
MPH
rain 1hr
in
rain 24hr
in
rain mn
in
humidity
%
barometer
mb
20260906011058 48 246 3.0 9.0 0.00 0.00 0.00 82 1022.3
20260906010540 49 221 4.0 9.0 0.00 0.00 0.00 81 1022.3
20260906010044 49 238 3.0 10.0 0.00 0.00 0.00 80 1022.3
20260906005542 49 184 4.0 10.0 0.00 0.00 0.00 78 1022.3
20260906004546 50 224 4.0 9.0 0.00 0.00 0.00 75 1021.9
20260906004027 51 205 5.0 9.0 0.00 0.00 0.00 73 1021.8
20260906003528 51 215 5.0 9.0 0.00 0.00 0.00 72 1021.7
20260906003031 51 214 2.0 6.0 0.00 0.00 0.00 72 1021.7
20260906002533 51 323 1.0 4.0 0.00 0.00 0.00 72 1021.4
20260906002037 51 311 0.0 5.0 0.00 0.00 0.00 72 1021.5
20260906001536 51 319 2.0 5.0 0.00 0.00 0.00 72 1021.5
20260906001039 51 333 1.0 4.0 0.00 0.00 0.00 72 1021.5
20260906000542 51 331 2.0 4.0 0.00 0.00 0.00 72 1021.4
20260906000026 51 302 2.0 4.0 0.00 0.00 0.00 72 1021.3
20260905235529 51 319 1.0 4.0 0.00 0.00 0.00 72 1021.3
20260905235033 51 326 2.0 3.0 0.00 0.00 0.00 72 1021.3
20260905234533 51 336 1.0 4.0 0.00 0.00 0.00 72 1021.4
20260905234052 51 329 2.0 5.0 0.00 0.00 0.00 71 1021.3
20260905233536 51 320 3.0 6.0 0.00 0.00 0.00 71 1021.2
20260905233036 51 323 2.0 6.0 0.00 0.00 0.00 71 1021.2
20260905232538 51 321 2.0 4.0 0.00 0.00 0.00 71 1021.3
20260905232043 51 284 3.0 4.0 0.00 0.00 0.00 71 1021.3
20260905231528 52 296 2.0 5.0 0.00 0.00 0.00 71 1021.2
20260905231106 52 297 3.0 5.0 0.00 0.00 0.00 70 1021.0
20260905230529 52 321 2.0 5.0 0.00 0.00 0.00 71 1021.0
20260905230034 52 307 3.0 4.0 0.00 0.00 0.00 70 1021.0
20260905225537 52 326 2.0 5.0 0.00 0.00 0.00 70 1021.0
20260905225039 52 270 3.0 5.0 0.00 0.00 0.00 70 1020.9
20260905224542 52 295 3.0 5.0 0.00 0.00 0.00 70 1021.0
20260905224043 52 304 4.0 5.0 0.00 0.00 0.00 70 1021.0
20260905223544 52 323 3.0 6.0 0.00 0.00 0.00 70 1020.9
20260905223044 52 319 4.0 6.0 0.00 0.00 0.00 70 1020.9
20260905222607 52 295 3.0 5.0 0.00 0.00 0.00 71 1020.8
20260905222046 52 290 3.0 5.0 0.00 0.00 0.00 71 1020.8
20260905221546 52 309 2.0 4.0 0.00 0.00 0.00 71 1020.7
20260905221028 52 322 1.0 4.0 0.00 0.00 0.00 71 1020.7
20260905220531 52 313 2.0 4.0 0.00 0.00 0.00 71 1020.7
20260905220031 52 307 2.0 4.0 0.00 0.00 0.00 71 1020.8
20260905215534 52 231 2.0 4.0 0.00 0.00 0.00 71 1020.6
20260905215033 52 311 2.0 5.0 0.00 0.00 0.00 70 1020.5
20260905214555 52 291 3.0 5.0 0.00 0.00 0.00 69 1020.5
20260905214034 53 274 2.0 6.0 0.00 0.00 0.00 69 1020.4
20260905213104 53 262 4.0 8.0 0.00 0.00 0.00 66 1020.3
20260905211545 54 257 4.0 6.0 0.00 0.00 0.00 65 1019.9
20260905211044 54 212 3.0 9.0 0.00 0.00 0.00 65 1019.8
20260905210544 54 240 3.0 11.0 0.00 0.00 0.00 64 1019.8
20260905210028 55 276 5.0 10.0 0.00 0.00 0.00 64 1019.8
20260905205531 55 255 7.0 10.0 0.00 0.00 0.00 63 1019.8
20260905205034 55 263 4.0 13.0 0.00 0.00 0.00 62 1019.7
20260905204536 55 252 3.0 13.0 0.00 0.00 0.00 62 1019.4
20260905204039 55 267 5.0 13.0 0.00 0.00 0.00 62 1019.5
20260905203539 56 230 4.0 11.0 0.00 0.00 0.00 61 1019.4
20260905203041 56 200 4.0 12.0 0.00 0.00 0.00 60 1019.4
20260905202541 56 247 7.0 12.0 0.00 0.00 0.00 59 1019.3
20260905202047 57 226 4.0 10.0 0.00 0.00 0.00 60 1019.1
20260905201546 57 228 5.0 12.0 0.00 0.00 0.00 60 1019.1
20260905201027 56 246 8.0 13.0 0.00 0.00 0.00 59 1019.0
20260905200531 57 250 7.0 13.0 0.00 0.00 0.00 58 1019.0
20260905200049 57 267 8.0 11.0 0.00 0.00 0.00 57 1018.9
20260905195528 57 219 6.0 11.0 0.00 0.00 0.00 58 1018.8
20260905195031 57 251 7.0 13.0 0.00 0.00 0.00 57 1018.7
20260905194533 57 229 6.0 12.0 0.00 0.00 0.00 59 1018.6
20260905194037 58 217 6.0 12.0 0.00 0.00 0.00 59 1018.5
20260905193541 58 188 4.0 9.0 0.00 0.00 0.00 62 1018.4
20260905193044 58 224 5.0 9.0 0.00 0.00 0.00 62 1018.4
20260905192542 58 202 5.0 10.0 0.00 0.00 0.00 61 1018.3
20260905192030 57 188 4.0 11.0 0.00 0.00 0.00 60 1018.0
20260905191531 57 216 6.0 11.0 0.00 0.00 0.00 57 1017.9
20260905191034 57 193 4.0 12.0 0.00 0.00 0.00 59 1017.8
20260905190533 58 185 8.0 12.0 0.00 0.00 0.00 59 1017.9
20260905190037 58 202 8.0 11.0 0.00 0.00 0.00 59 1017.9
20260905185559 58 226 5.0 8.0 0.00 0.00 0.00 59 1017.8
20260905185043 57 319 4.0 10.0 0.00 0.00 0.00 61 1017.9
20260905184545 57 207 6.0 12.0 0.00 0.00 0.00 62 1017.9
20260905184048 57 199 6.0 13.0 0.00 0.00 0.00 61 1018.1
20260905183607 57 168 5.0 9.0 0.00 0.00 0.00 65 1018.0
20260905183029 57 206 3.0 8.0 0.00 0.00 0.00 66 1017.9
20260905182531 57 212 5.0 12.0 0.00 0.00 0.00 64 1018.0
20260905182052 57 199 7.0 12.0 0.00 0.00 0.00 66 1018.1
20260905181531 57 285 5.0 9.0 0.00 0.00 0.00 65 1018.1
20260905181055 57 256 7.0 9.0 0.00 0.00 0.00 65 1018.2
20260905180535 57 246 4.0 11.0 0.00 0.00 0.00 65 1018.2
20260905180037 57 217 7.0 11.0 0.00 0.00 0.00 64 1018.1
20260905175600 57 209 4.0 11.0 0.00 0.00 0.00 65 1018.0
20260905175042 57 213 4.0 10.0 0.00 0.00 0.00 65 1018.0
20260905174527 57 243 7.0 10.0 0.00 0.00 0.00 62 1018.1
20260905174031 57 266 5.0 10.0 0.00 0.00 0.00 65 1018.1
20260905173531 57 302 5.0 9.0 0.00 0.00 0.00 66 1018.1
20260905173054 56 196 2.0 10.0 0.00 0.00 0.00 67 1018.1
20260905172539 56 205 5.0 11.0 0.00 0.00 0.00 66 1018.3
20260905172100 57 228 7.0 10.0 0.00 0.00 0.00 64 1018.3
20260905171542 56 243 3.0 9.0 0.00 0.00 0.00 65 1018.3
20260905171042 56 254 3.0 8.0 0.00 0.00 0.00 66 1018.4
20260905170542 56 276 5.0 8.0 0.00 0.00 0.00 67 1018.4
20260905170045 56 233 5.0 9.0 0.00 0.00 0.00 69 1018.5
20260905165607 56 201 5.0 11.0 0.00 0.00 0.00 68 1018.6
20260905165048 56 229 4.0 9.0 0.00 0.00 0.00 69 1018.5
20260905164551 56 254 4.0 11.0 0.00 0.00 0.00 68 1018.5
20260905164031 55 145 5.0 9.0 0.00 0.00 0.00 68 1018.5
20260905163533 56 189 5.0 10.0 0.00 0.00 0.00 68 1018.6
20260905163036 55 223 6.0 12.0 0.00 0.00 0.00 69 1018.7
20260905162559 55 184 7.0 12.0 0.00 0.00 0.00 68 1018.7
20260905162026 55 221 5.0 12.0 0.00 0.00 0.00 71 1018.9
20260905161529 55 204 6.0 12.0 0.00 0.00 0.00 69 1018.8
20260905161029 55 245 8.0 11.0 0.00 0.00 0.00 69 1018.6
20260905160530 55 211 5.0 14.0 0.00 0.00 0.00 68 1018.6
20260905160032 55 195 8.0 14.0 0.00 0.00 0.00 67 1018.7
20260905155534 55 246 5.0 15.0 0.00 0.00 0.00 68 1018.6
20260905155053 55 219 6.0 15.0 0.00 0.00 0.00 70 1018.6
20260905154534 55 269 4.0 12.0 0.00 0.00 0.00 70 1018.5
20260905154037 55 155 5.0 12.0 0.00 0.00 0.00 71 1018.6
20260905153557 54 205 5.0 11.0 0.00 0.00 0.00 70 1018.7
20260905151056 54 193 6.0 10.0 0.00 0.00 0.00 71 1019.1
20260905150601 54 183 1.0 10.0 0.00 0.00 0.00 69 1019.3
20260905150046 54 202 6.0 10.0 0.00 0.00 0.00 72 1019.4
20260905145547 53 190 5.0 11.0 0.00 0.00 0.00 72 1019.3
20260905145106 54 185 8.0 11.0 0.00 0.00 0.00 69 1019.4
20260905144607 54 230 5.0 14.0 0.00 0.00 0.00 72 1019.4
20260905144106 54 210 7.0 14.0 0.00 0.00 0.00 73 1019.4
20260905143546 53 242 5.0 9.0 0.00 0.00 0.00 75 1019.4
20260905143028 54 263 5.0 8.0 0.00 0.00 0.00 74 1019.4
20260905142551 53 231 5.0 10.0 0.00 0.00 0.00 78 1019.4
20260905142031 53 207 7.0 10.0 0.00 0.00 0.00 77 1019.3
20260905141534 53 198 7.0 9.0 0.00 0.00 0.00 77 1019.3
20260905141039 53 278 5.0 8.0 0.00 0.00 0.00 79 1019.4
20260905140603 53 250 3.0 7.0 0.00 0.00 0.00 82 1019.5
20260905140028 52 224 5.0 7.0 0.00 0.00 0.00 82 1019.4
20260905135532 52 252 4.0 10.0 0.00 0.00 0.00 83 1019.5
20260905135033 52 191 5.0 10.0 0.00 0.00 0.00 83 1019.6
20260905134533 52 211 6.0 10.0 0.00 0.00 0.00 83 1019.6
20260905134034 52 178 4.0 9.0 0.00 0.00 0.00 83 1019.5
20260905133537 52 181 5.0 9.0 0.00 0.00 0.00 86 1019.4
20260905133040 51 167 4.0 9.0 0.00 0.00 0.00 87 1019.4
20260905132541 51 188 2.0 8.0 0.00 0.00 0.00 88 1019.4
20260905132043 51 234 4.0 6.0 0.00 0.00 0.00 88 1019.6
20260905131608 51 165 3.0 6.0 0.00 0.00 0.00 89 1019.7
20260905131048 51 133 4.0 6.0 0.00 0.00 0.00 90 1019.6
20260905130528 50 191 2.0 7.0 0.00 0.00 0.00 91 1019.5
20260905130029 50 161 3.0 7.0 0.00 0.00 0.00 92 1019.5
20260905125535 50 162 3.0 5.0 0.00 0.00 0.00 93 1019.5
20260905125057 50 183 2.0 4.0 0.00 0.00 0.00 95 1019.5
20260905124539 50 151 2.0 4.0 0.00 0.00 0.00 95 1019.7
20260905124104 49 119 2.0 4.0 0.00 0.00 0.00 95 1019.9
20260905123545 49 181 2.0 5.0 0.00 0.00 0.00 95 1019.9
20260905123026 49 143 3.0 5.0 0.00 0.00 0.00 95 1019.9
20260905122532 49 131 1.0 5.0 0.00 0.00 0.00 95 1019.9
20260905122034 48 159 3.0 5.0 0.00 0.00 0.00 95 1019.8
20260905121556 48 157 2.0 4.0 0.00 0.00 0.00 96 1019.7
20260905121036 48 92 1.0 4.0 0.00 0.00 0.00 96 1019.5
20260905120537 48 109 2.0 6.0 0.00 0.00 0.00 96 1019.5
20260905120104 48 102 4.0 5.0 0.00 0.00 0.00 96 1019.5
20260905115528 48 110 2.0 4.0 0.00 0.00 0.00 96 1019.4
20260905115031 48 136 1.0 3.0 0.00 0.00 0.00 96 1019.4
20260905114534 48 124 1.0 3.0 0.00 0.00 0.00 96 1019.3
20260905114037 48 103 2.0 4.0 0.00 0.00 0.00 96 1019.4
20260905113544 48 98 1.0 3.0 0.00 0.00 0.00 96 1019.4
20260905113047 48 98 0.0 3.0 0.00 0.00 0.00 96 1019.4
20260905112608 48 118 2.0 3.0 0.00 0.00 0.00 96 1019.3
20260905112030 48 130 2.0 4.0 0.00 0.00 0.00 96 1019.2
20260905111531 48 132 2.0 4.0 0.00 0.00 0.00 96 1019.2
20260905111034 48 141 0.0 5.0 0.00 0.00 0.00 96 1019.2
20260905110533 47 136 3.0 5.0 0.00 0.00 0.00 96 1019.3
20260905110037 47 175 3.0 5.0 0.00 0.00 0.00 96 1019.2
20260905105540 47 167 3.0 5.0 0.00 0.00 0.00 96 1019.0
20260905105043 47 146 4.0 5.0 0.00 0.00 0.00 96 1018.8
20260905104603 47 120 3.0 6.0 0.00 0.00 0.00 95 1018.7
20260905104038 47 166 3.0 6.0 0.00 0.00 0.00 95 1018.6
20260905103600 47 179 3.0 10.0 0.00 0.00 0.00 95 1018.6
20260905103041 47 198 6.0 10.0 0.00 0.00 0.00 95 1018.4
20260905102543 47 217 5.0 11.0 0.00 0.00 0.00 95 1018.4
20260905102032 47 202 4.0 8.0 0.00 0.00 0.00 95 1018.4
20260905101534 47 198 5.0 9.0 0.00 0.00 0.00 95 1018.4
20260905101036 47 185 5.0 8.0 0.00 0.00 0.00 95 1018.4
20260905100538 47 171 3.0 5.0 0.00 0.00 0.00 95 1018.3
20260905100039 47 174 3.0 5.0 0.00 0.00 0.00 95 1018.2
20260905095603 47 179 2.0 5.0 0.00 0.00 0.00 95 1018.0
20260905095103 47 201 2.0 5.0 0.00 0.00 0.00 95 1018.0
20260905094605 47 144 2.0 5.0 0.00 0.00 0.00 95 1017.9
20260905094102 47 163 3.0 5.0 0.00 0.00 0.00 95 1017.9
20260905093543 47 163 3.0 5.0 0.00 0.00 0.00 94 1017.8
20260905093026 47 181 3.0 5.0 0.00 0.00 0.00 94 1017.7
20260905092609 47 176 327.0 327.0 0.00 0.00 0.00 94 1017.3
20260905090627 47 158 327.0 327.0 0.00 0.00 0.00 94 1017.2
20260905090052 47 174 1.0 3.0 0.00 0.00 0.00 93 1017.4
20260905085548 47 156 1.0 3.0 0.00 0.00 0.00 93 1017.4
20260905085048 47 156 2.0 3.0 0.00 0.00 0.00 93 1017.3
20260905084530 47 160 2.0 3.0 0.00 0.00 0.00 93 1017.3
20260905084030 47 172 2.0 2.0 0.00 0.00 0.00 93 1017.3
20260905083552 48 172 1.0 3.0 0.00 0.00 0.00 93 1017.3
20260905083052 48 173 1.0 3.0 0.00 0.00 0.00 92 1017.3
20260905082534 48 158 1.0 3.0 0.00 0.00 0.00 92 1017.2
20260905082034 48 143 1.0 3.0 0.00 0.00 0.00 92 1017.2
20260905081535 48 160 1.0 2.0 0.00 0.00 0.00 92 1017.1
20260905081036 48 160 1.0 2.0 0.00 0.00 0.00 92 1017.1
20260905080538 48 160 0.0 3.0 0.00 0.00 0.00 92 1017.3
20260905080042 48 160 1.0 3.0 0.00 0.00 0.00 92 1017.1
20260905075544 48 167 1.0 3.0 0.00 0.00 0.00 92 1017.1
20260905075030 48 154 2.0 3.0 0.00 0.00 0.00 92 1017.0
20260905074530 48 154 1.0 1.0 0.00 0.00 0.00 92 1017.0
20260905074030 48 154 0.0 0.0 0.00 0.00 0.00 92 1017.0
20260905073532 48 154 0.0 0.0 0.00 0.00 0.00 92 1017.1
20260905073056 48 154 0.0 0.0 0.00 0.00 0.00 92 1017.0
20260905072537 48 154 0.0 0.0 0.00 0.00 0.00 92 1016.9
20260905072038 48 154 0.0 0.0 0.00 0.00 0.00 92 1016.9
20260905071534 48 154 0.0 0.0 0.00 0.00 0.00 92 1017.1
20260905071037 48 154 0.0 0.0 0.00 0.00 0.00 92 1017.2
20260905070557 48 154 0.0 0.0 0.00 0.00 0.00 92 1017.1
20260905070040 48 154 0.0 1.0 0.00 0.00 0.00 92 1017.0
20260905065542 48 154 0.0 3.0 0.00 0.00 0.00 92 1017.1
20260905065044 48 154 1.0 3.0 0.00 0.00 0.00 92 1017.2
20260905064606 48 154 1.0 3.0 0.00 0.00 0.00 92 1017.1
20260905064108 48 154 0.0 0.0 0.00 0.00 0.00 93 1017.3
20260905063551 48 154 0.0 0.0 0.00 0.00 0.00 93 1017.3
20260905063030 48 154 0.0 0.0 0.00 0.00 0.00 93 1017.4
20260905062531 48 154 0.0 0.0 0.00 0.00 0.00 93 1017.4
20260905062032 48 154 0.0 0.0 0.00 0.00 0.00 93 1017.3
20260905061539 48 154 0.0 0.0 0.00 0.00 0.00 93 1017.4
20260905061102 48 154 0.0 0.0 0.00 0.00 0.00 93 1017.2
20260905060541 48 154 0.0 0.0 0.00 0.00 0.00 93 1017.3
20260905060046 48 154 0.0 0.0 0.00 0.00 0.00 93 1017.3
20260905055529 48 154 0.0 0.0 0.00 0.00 0.00 93 1017.4
20260905055031 48 154 0.0 2.0 0.00 0.00 0.00 92 1017.3
20260905054535 48 154 0.0 2.0 0.00 0.00 0.00 92 1017.3
20260905054036 48 165 1.0 2.0 0.00 0.00 0.00 92 1017.3
20260905053535 48 172 1.0 2.0 0.00 0.00 0.00 92 1017.4
20260905053036 48 179 1.0 3.0 0.00 0.00 0.00 92 1017.4
20260905052600 48 150 1.0 3.0 0.00 0.00 0.00 92 1017.4
20260905052040 48 122 2.0 3.0 0.00 0.00 0.00 92 1017.5
20260905051602 48 172 1.0 3.0 0.00 0.00 0.00 92 1017.6
20260905051041 48 172 1.0 3.0 0.00 0.00 0.00 92 1017.5
20260905050544 48 176 2.0 3.0 0.00 0.00 0.00 92 1017.4
20260905050027 49 160 2.0 3.0 0.00 0.00 0.00 92 1017.4
20260905045550 49 189 2.0 5.0 0.00 0.00 0.00 92 1017.6
20260905045036 49 196 3.0 5.0 0.00 0.00 0.00 92 1017.5
20260905044536 49 195 4.0 5.0 0.00 0.00 0.00 92 1017.5
20260905044041 48 211 3.0 4.0 0.00 0.00 0.00 92 1017.6
20260905043546 48 208 1.0 3.0 0.00 0.00 0.00 92 1017.5
20260905043029 48 183 2.0 4.0 0.00 0.00 0.00 92 1017.5
20260905042532 48 174 2.0 4.0 0.00 0.00 0.00 92 1017.5
20260905042053 48 179 2.0 4.0 0.00 0.00 0.00 92 1017.4
20260905041531 48 169 2.0 3.0 0.00 0.00 0.00 92 1017.4
20260905041034 48 155 1.0 3.0 0.00 0.00 0.00 92 1017.6
20260905040538 48 155 1.0 3.0 0.00 0.00 0.00 92 1017.5
20260905040101 48 153 1.0 3.0 0.00 0.00 0.00 92 1017.6
20260905035542 48 171 1.0 3.0 0.00 0.00 0.00 92 1017.9
20260905035042 48 166 1.0 2.0 0.00 0.00 0.00 92 1017.9
20260905034545 49 162 1.0 2.0 0.00 0.00 0.00 92 1017.9
20260905034031 48 187 1.0 3.0 0.00 0.00 0.00 92 1017.7
20260905033534 49 162 2.0 3.0 0.00 0.00 0.00 92 1017.6
20260905033032 49 154 2.0 4.0 0.00 0.00 0.00 92 1017.8
20260905032533 49 134 2.0 4.0 0.00 0.00 0.00 92 1017.8
20260905032036 49 134 2.0 6.0 0.00 0.00 0.00 92 1017.9
20260905031137 49 160 327.0 327.0 0.00 0.00 0.00 92 1018.1
20260905024543 49 179 2.0 5.0 0.00 0.00 0.00 92 1018.0
20260905024044 49 186 3.0 8.0 0.00 0.00 0.00 92 1017.9
20260905023607 49 188 4.0 9.0 0.00 0.00 0.00 92 1018.1
20260905023030 49 209 7.0 9.0 0.00 0.00 0.00 91 1017.9
20260905022535 50 212 4.0 6.0 0.00 0.00 0.00 90 1018.0
20260905022036 50 233 4.0 6.0 0.00 0.00 0.00 90 1018.1
20260905021539 50 227 4.0 6.0 0.00 0.00 0.00 89 1018.1
20260905021038 50 240 3.0 4.0 0.00 0.00 0.00 89 1018.1
20260905020540 50 263 2.0 7.0 0.00 0.00 0.00 88 1018.1
20260905020030 51 251 5.0 7.0 0.00 0.00 0.00 88 1018.3
20260905015531 51 260 3.0 5.0 0.00 0.00 0.00 87 1018.3
20260905015054 51 214 3.0 5.0 0.00 0.00 0.00 87 1018.2
20260905014532 51 212 3.0 5.0 0.00 0.00 0.00 86 1018.1
20260905014036 51 210 4.0 7.0 0.00 0.00 0.00 86 1018.0
20260905013539 51 221 4.0 7.0 0.00 0.00 0.00 85 1018.1
20260905013038 52 244 4.0 6.0 0.00 0.00 0.00 84 1018.1
20260905012541 52 233 4.0 6.0 0.00 0.00 0.00 84 1018.1
20260905012042 52 233 5.0 8.0 0.00 0.00 0.00 83 1018.1
20260905011542 52 212 4.0 11.0 0.00 0.00 0.00 81 1018.1